Current Version              Previous Version:    01  02  03  04  05  06  07  08  09  10  11  12  13  14  15  16  17  18  19  20  21  22  23  24  25  26  27  28  29  30  
   31  32  33  34  35  36  37  38  39  40  41  42  43  44  45  46  47  48  49  50  51  52  53  54  55  56  57  58  59  60  

[Printable]
731
ASUS44 KEWX 261110
RWRTX
SOUTH TEXAS REGIONAL WEATHER ROUNDUP
NATIONAL WEATHER SERVICE AUSTIN/SAN ANTONIO TX
500 AM CST WED NOV 26 2014

NOTE: "FAIR" INDICATED FEW OR NO CLOUDS BELOW 12,000 FEET WITH NO
SIGNIFICANT WEATHER AND/OR OBSTRUCTIONS TO VISIBILITY.

* - THESE STATIONS ARE NOT NWS OR FAA STATIONS...AND ARE NOT SUBJECT
    TO NWS AND FAA QUALITY CONTROL.

TXZ171-172-183>190-261200-
TEXAS HILL COUNTRY AND EDWARDS PLATEAU

CITY           SKY/WX    TMP DP  RH WIND       PRES   REMARKS
JUNCTION       CLEAR     29  24  82 CALM      30.17S
*LLANO         CLEAR     37  28  70 W5        30.19S WCI  34
BURNET         CLEAR     36  29  75 CALM      30.17S
*HORSESHOE BAY CLEAR     41  31  68 CALM      30.16S
*KERRVILLE     CLEAR     31  29  91 NW7       30.20R WCI  24
*FREDERICKSBRG CLEAR     35  27  74 W3        30.18R
*ROCKSPRINGS   CLEAR     45  27  49 MISG      30.22R
*BOERNE STAGE  CLEAR     50  28  43 SW9       30.20S WCI  46
*CASTROVILLE   CLEAR     37  31  79 MISG      30.23S
HONDO          CLEAR     34  27  75 NW7       30.23R WCI  28
*UVALDE        CLEAR     35  30  82 CALM      30.22S
DEL RIO        CLEAR     37  32  82 W5        30.21R WCI  33
LAUGHLIN AFB   CLEAR     35  31  83 N7        30.20R WCI  30
CARRIZO SPRGS  CLEAR     36  34  93 CALM      30.21S
$$

TXZ173-191>194-202-209-217>225-228-261200-
CENTRAL AND SOUTH CENTRAL TEXAS

CITY           SKY/WX    TMP DP  RH WIND       PRES   REMARKS
GEORGETOWN     CLEAR     45  28  53 SW8       30.14F WCI  40
AUSTIN/BERGSTM CLEAR     42  34  73 S12       30.18R WCI  36
AUSTIN/MABRY   CLEAR     46  30  53 CALM      30.18R
*AUSTIN/EXEC   CLEAR     39  32  75 SW6       30.17S WCI  35
*LAGO VISTA    CLEAR     47  28  48 SW8       30.16S WCI  43
SAN MARCOS     CLEAR     37  30  75 SW6       30.21R WCI  33
NEW BRAUNFELS  CLEAR     38  33  82 SW7       30.19R WCI  33
RANDOLPH AFB   CLEAR     44  33  65 SW6       30.21R WCI  40
PT SAN ANTONIO CLEAR     39  33  80 CALM      30.19R
SAN ANTONIO    CLEAR     41  34  76 NW5       30.21R WCI  38
STINSON FIELD  CLEAR     40  34  79 CALM      30.21R
*PLEASANTON    FLURRIES  37  32  82 CALM      30.23S
*LA GRANGE     CLEAR     45  37  73 SW6       30.18R WCI  42
*GIDDINGS      CLEAR     43  33  69 SW6       30.22R WCI  39
*GONZALES      CLEAR     44  34  68 SW3       30.21R
$$

TXZ163>164-176>182-195>201-210>213-226-227-235-261200-
SOUTHEAST TEXAS

CITY           SKY/WX    TMP DP  RH WIND       PRES   REMARKS
COLLEGE STN    CLEAR     42  35  76 S6        30.17S WCI  38
*BRYAN         CLEAR     46  34  61 S8        30.18R WCI  42
*CALDWELL      CLEAR     43  34  70 S7        30.20S WCI  39
*CROCKETT      CLEAR     41  36  81 S5        30.17S WCI  38
*BRENHAM       CLEAR     47  36  66 CALM      30.20R
HUNTSVILLE     CLEAR     48  34  58 S8        30.17S WCI  44
CONROE         CLEAR     35  33  92 CALM      30.20S
HOUSTON BUSH   CLEAR     49  39  68 CALM      30.21R
HOUSTON HOBBY  CLEAR     45  40  82 SW5       30.21S WCI  43
*HOUSTON SW AP CLEAR     42  39  91 CALM      30.23R
PEARLAND       CLEAR     49  40  71 S5        30.23S WCI  47
HOUSTON HOOKS  CLEAR     46  37  71 SW5       30.21R WCI  44
ELLINGTON FLD  CLEAR     48  39  71 S5        30.22S WCI  46
SUGAR LAND     CLEAR     45  39  79 S5        30.21S WCI  43
*HOUSTON EXEC  CLEAR     41  37  87 SW6       30.22R WCI  37
*CLEVELAND MUN CLEAR     37  37 100 CALM      30.21R
*WHARTON       NOT AVBL
*COLUMBUS      FAIR      43  37  78 SW7       30.20R WCI  39
$$

TXZ214>216-236>238-261200-
THE UPPER TEXAS COAST

CITY           SKY/WX    TMP DP  RH WIND       PRES   REMARKS
*ORANGE        CLEAR     44  44 100 CALM      30.22S
PORT ARTHUR    CLEAR     47  42  83 SW5       30.21S WCI  45
GALVESTON      CLEAR     56  48  74 SW7       30.23S
ANGLETON       CLEAR     42  41  96 CALM      30.22S
*BAY CITY        N/A     47  44  90 CALM      30.22R
PALACIOS       CLEAR     54  48  80 SW7       30.22S
$$

TXZ229>234-239>247-261200-
TEXAS COASTAL BEND AND RIO GRANDE PLAINS

CITY           SKY/WX    TMP DP  RH WIND       PRES   REMARKS
VICTORIA       CLEAR     47  38  71 SW7       30.23S WCI  44
*BEEVILLE      CLEAR     46  35  67 SW5       30.23F WCI  43
ROCKPORT       CLEAR     47  43  86 SW6       30.23F WCI  44
*PORT ARANSAS  CLEAR     54  46  73 SW5       30.24S
*PORT LAVACA   CLEAR     45  43  93 SW6       30.23S WCI  42
*INGLESIDE     CLEAR     51  43  76 SW7       30.24F
CORPUS CHRISTI CLEAR     44  39  82 SW7       30.25S WCI  40
CORPUS NAS     CLEAR     47  43  86 SW7       30.24S WCI  44
*ROBSTOWN      NOT AVBL
ALICE          CLEAR     41  37  86 SW6       30.24S WCI  37
KINGSVILLE NAS CLEAR     41  38  89 S5        30.25S WCI  38
COTULLA        CLEAR     41  33  73 SE3       30.23S
LAREDO         CLEAR     46  37  70 SE6       30.25F WCI  43
$$

TXZ248>255-261200-
DEEP SOUTH TEXAS

CITY           SKY/WX    TMP DP  RH WIND       PRES   REMARKS
BROWNSVILLE    CLEAR     46  42  86 CALM      30.28R
PORT ISABEL    CLEAR     46  39  76 SW7       30.27R WCI  42
*SOUTH PADRE   CLEAR    N/A N/A N/A CALM      30.27R
HARLINGEN      CLEAR     41  39  93 S5        30.26S WCI  38
*HEBBRONVILLE  CLEAR     43  33  68 S7        30.24S WCI  38
MCALLEN        CLEAR     43  41  93 CALM      30.28R
*WESLACO       CLEAR     45  39  79 SW3       30.27S
FALFURRIAS     CLEAR     41  37  84 SW3       30.25S
EDINBURG       CLEAR     44  38  81 CALM      30.27S
*ZAPATA        NOT AVBL
$$

TXZ213>215-236>238-242>244-246-247-251-254-255-261200-
CMAN STATIONS

STATION/POSITION TIME  TEMP    WIND        PRES    WAVE
                       AIR SEA DIR/SP/G            HT/PER
                 (UTC) (F)     (DEG/KT/KT) (MB)    (FT/S)
SABINE PASS      1100   51 60  220/  4/  6 1022.8
SEA RIM ST PARK  1100   58     220/  9/ 10 1023.5
NORTH JETTY/GLS  1100   59 59  240/ 10/ 11   N/A
EAGLE POINT      1100   52 58  240/  5/  6 1023.1
MORGANS POINT    1100   54     220/  4/  5 1022.7
MISSION/ARANSAS  1000   57     230/ 11     1025.0
PORT O`CONNOR    1100          200/  7/  8   N/A
PORT ARANSAS     1100   57 61  220/ 10/ 11 1024.5
MALAQUITE BEACH  1100   54 62  220/  7/  9 1023.7
BAFFIN BAY       1100   53 70  220/  5/  5 1024.3
PORT ISABEL      1100   54 64  210/  5/  6 1024.9
$$

GMZ080-GMZ150>470-261200-
OFFSHORE BUOY REPORTS

STATION/POSITION TIME  TEMP    WIND        PRES    WAVE
                       AIR SEA DIR/SP/G            HT/PER
                 (UTC) (F)     (DEG/KT/KT) (MB)    (FT/S)
20 E GALVESTON   1100   61 60  220/ 10/ 12 1022.8    2/ 3
90 E PT ARANSAS  1100   65 72  240/  8/ 12 1024.3    3/ 8
35 NE PT MANSFLD 1100   66 73  170/  6/  8 1024.2    4/ 9
200 E PT ISABEL  1100   65 74   20/ 12/ 16 1024.6    6/ 8
$$